Wind_Speed
45 45 45 45 45 45 45 44 43 42 41 40 39 38 37 36 35 33 32 31 29 27 26 25 24 24 24 22 21 21 24 27 31 35 37 41 45 46 47 47 46 46 46 46 46 45 44 43 42 41 40 39 38 37 37 35 34 33 32 31 29 28 28 27 26 26 25 25 25 25 25 25 25 25 26 27 27 28 29 28 27 25 19 14 15 18 21 23
45 45 46 46 46 46 47 46 45 44 43 43 42 41 40 39 38 36 35 34 33 31 30 28 27 27 27 26 24 23 23 25 29 31 32 37 41 44 46 47 47 48 48 48 48 47 46 46 45 44 43 42 41 40 39 37 35 34 33 32 31 30 30 29 28 27 27 27 26 26 26 26 26 26 26 27 27 28 28 27 25 20 14 12 15 17 20 22
46 46 46 46 47 47 48 48 48 47 46 45 44 43 43 42 41 40 39 37 36 35 34 32 30 29 29 28 27 26 25 25 27 28 29 33 36 39 43 45 46 48 49 49 48 48 48 48 47 46 45 44 43 41 40 38 37 35 34 34 33 32 31 30 29 29 29 28 27 27 27 27 26 26 27 27 27 28 27 25 22 15 10 12 15 17 19 21
46 47 47 47 47 48 48 48 49 49 48 48 47 46 45 45 43 42 42 40 39 38 37 36 34 33 31 31 30 29 28 27 27 26 27 30 32 35 38 41 44 47 49 49 49 49 48 49 49 48 47 46 44 43 41 40 38 37 36 36 35 34 33 32 31 30 30 29 28 28 28 27 26 27 27 27 27 27 25 22 16 10 8 11 14 16 18 19
47 47 47 48 48 48 49 49 49 50 50 50 49 48 48 47 46 45 44 43 42 41 41 40 38 36 35 33 33 32 31 30 29 27 27 28 29 31 34 37 41 45 47 49 49 49 49 49 50 50 49 48 47 45 43 42 40 39 39 38 37 36 35 34 33 32 31 30 29 29 28 27 27 27 27 27 26 24 22 18 11 6 8 10 13 15 17 18
48 48 48 48 49 49 50 50 50 50 51 51 50 50 50 49 48 47 46 46 45 44 43 43 42 40 39 37 35 34 33 32 32 30 29 29 29 29 30 33 37 41 44 46 47 47 48 49 49 50 50 49 49 47 46 44 42 41 41 40 40 39 38 36 35 34 32 31 30 29 28 28 28 27 27 26 25 22 19 14 8 4 7 9 12 14 16 18
49 49 49 49 49 50 50 51 51 51 52 52 52 51 51 51 50 49 49 49 48 47 46 45 45 44 42 41 39 37 36 35 34 33 33 32 31 30 29 30 33 37 40 42 44 44 45 46 48 49 50 50 49 49 47 46 44 44 43 43 42 41 39 38 36 34 33 31 30 29 28 28 28 27 26 24 22 19 15 9 5 3 6 8 11 13 16 17
50 50 50 50 50 50 51 51 51 52 52 52 52 52 52 52 52 51 51 51 50 50 49 48 47 47 46 44 43 41 39 38 37 36 37 36 35 33 30 30 31 34 37 39 40 41 41 43 45 47 48 49 48 48 47 46 45 45 44 44 43 42 41 39 37 35 33 32 31 30 29 29 28 26 24 22 19 15 10 6 4 2 4 7 10 12 15 17
52 52 53 52 52 52 52 53 53 53 53 53 53 52 53 53 52 52 52 52 52 51 51 50 50 49 49 48 46 44 42 42 40 39 40 39 38 36 34 32 31 32 35 36 36 38 39 40 41 42 43 43 45 46 46 46 45 45 45 45 44 43 41 39 37 36 34 33 32 31 30 29 27 24 21 18 14 10 7 5 3 2 3 6 9 11 14 17
54 55 55 55 55 54 54 55 55 55 54 54 54 54 54 54 53 53 53 53 53 53 53 53 52 51 51 50 49 48 46 45 44 42 42 42 40 39 37 35 34 33 34 34 34 35 36 35 33 34 35 36 40 44 45 44 43 44 45 44 44 43 42 40 39 37 36 34 33 31 29 27 24 21 17 14 10 8 6 4 2 2 3 5 8 11 13 16
55 56 57 57 57 57 57 57 57 57 57 57 56 56 56 55 55 54 54 55 54 54 54 54 54 53 53 53 52 51 50 49 47 46 45 45 43 41 40 39 37 35 34 35 34 33 32 30 30 31 31 32 36 41 42 39 39 41 42 42 42 42 41 40 39 37 36 34 32 29 27 24 21 18 15 11 9 8 6 3 1 2 2 5 8 10 12 15
56 57 58 58 58 59 59 59 59 59 59 59 59 59 58 58 57 56 56 56 56 56 56 56 56 55 55 55 55 54 53 52 51 50 49 47 47 44 42 41 40 39 37 37 36 33 30 29 30 30 31 31 31 35 36 34 35 38 39 39 39 39 39 38 37 36 35 33 30 26 23 21 19 16 14 12 10 8 6 3 1 2 2 4 7 9 11 14
58 59 60 60 60 60 61 61 61 61 61 61 61 61 61 60 60 59 59 59 58 58 58 58 58 57 57 56 57 57 56 54 54 54 52 50 50 48 45 44 44 42 40 39 38 36 32 31 30 30 31 30 29 31 33 30 32 36 36 36 36 37 37 36 35 34 34 32 27 23 20 19 17 16 15 13 12 10 7 4 2 2 2 4 6 8 10 12
62 62 63 63 63 63 63 63 63 63 63 63 63 63 63 63 62 62 61 61 61 60 60 60 60 59 59 58 58 59 58 57 57 57 56 54 53 52 49 47 46 45 43 42 40 38 36 33 31 31 31 30 30 32 31 28 29 33 34 33 34 35 35 35 33 32 31 29 24 22 20 18 17 17 16 14 12 10 8 6 3 2 2 3 5 6 9 11
66 67 67 67 67 67 67 66 66 66 66 66 66 66 65 65 64 64 64 64 63 63 63 62 62 61 61 60 60 61 61 60 59 59 59 58 56 55 53 51 49 48 46 44 42 41 39 36 34 33 32 31 31 31 30 27 27 31 32 33 35 34 33 33 32 30 29 26 23 21 19 18 18 18 16 14 13 11 9 7 4 2 1 3 4 5 7 9
70 71 71 72 72 72 71 71 71 70 70 69 69 68 68 68 67 66 66 66 66 65 65 65 64 64 63 63 62 63 62 62 61 61 61 61 60 58 57 55 53 51 49 47 46 44 42 40 38 36 35 33 32 31 29 27 27 29 31 33 35 34 31 31 30 28 27 24 23 21 19 19 19 18 16 15 13 11 10 8 5 3 2 2 3 4 6 8
72 73 74 75 76 76 76 76 76 75 75 74 73 73 72 71 70 69 68 68 68 67 67 67 67 66 65 65 65 64 64 64 63 63 63 63 63 62 61 58 56 54 52 50 48 46 44 43 41 40 38 36 34 33 32 30 30 31 33 36 37 33 30 30 28 26 25 24 23 22 22 21 21 19 18 16 14 13 11 9 7 5 3 2 3 3 5 7
73 74 75 76 77 78 79 79 80 80 80 79 78 77 76 75 74 72 71 70 70 69 69 69 69 69 68 67 67 66 66 66 66 65 65 65 65 65 64 62 60 58 56 53 50 49 47 46 45 43 40 39 38 37 37 36 34 35 38 40 37 31 29 29 26 24 25 23 22 23 24 23 22 21 19 18 16 14 12 10 9 7 5 3 3 3 4 6
72 73 74 75 76 77 79 80 81 82 83 83 83 82 81 81 79 77 75 74 73 72 72 71 71 71 70 69 69 69 68 68 68 68 67 67 67 67 68 66 64 61 59 56 54 52 50 49 47 44 43 44 43 42 42 40 37 38 40 40 35 29 28 26 24 23 23 21 21 23 24 23 22 21 20 19 17 15 13 11 10 8 6 5 3 2 3 5
71 71 72 73 75 76 78 79 81 82 83 84 85 85 85 84 84 82 80 78 77 76 75 74 74 73 72 72 71 71 71 71 70 70 70 70 69 69 70 70 68 65 62 60 57 56 55 52 49 48 50 50 48 46 44 41 40 39 39 37 34 29 27 26 24 23 22 22 23 24 24 23 23 22 21 20 19 17 14 11 10 10 8 6 4 2 2 4
71 71 71 72 73 75 77 78 80 82 83 85 85 86 86 86 86 86 84 82 82 81 80 78 77 77 75 74 74 73 73 73 73 73 72 72 72 71 71 71 71 68 66 64 62 61 58 53 53 55 55 53 50 48 46 44 44 41 38 38 35 31 29 28 27 26 25 25 25 25 25 25 24 23 22 22 21 18 14 12 12 11 10 8 5 3 2 3
74 74 74 74 75 76 77 78 79 81 82 83 84 85 86 86 87 87 86 85 84 84 84 83 82 81 80 78 77 76 75 75 75 75 75 75 75 73 73 72 72 72 71 69 66 64 59 56 59 60 57 54 53 52 49 48 47 43 41 40 38 35 33 31 31 30 28 27 27 26 26 26 25 24 23 24 22 18 15 14 15 14 11 8 6 5 3 2
77 77 78 78 79 79 80 80 81 82 82 82 82 83 84 85 86 87 87 87 86 86 86 87 86 86 85 83 81 80 78 77 77 77 78 78 77 75 74 74 74 74 74 71 68 67 63 62 65 63 59 58 58 56 53 52 50 47 45 43 42 40 38 36 35 32 30 30 29 27 27 27 25 25 25 26 22 19 17 17 17 14 11 9 8 7 6 3
78 79 80 81 81 82 83 83 84 85 85 84 83 83 83 84 84 85 86 87 87 86 86 87 88 89 89 88 86 84 83 81 80 80 80 80 79 78 77 77 76 76 76 74 73 71 67 67 68 64 63 64 63 59 56 54 53 51 49 48 46 45 43 40 36 34 35 35 33 31 29 27 26 26 27 26 23 20 19 19 18 14 12 10 9 9 8 5
79 80 82 82 83 83 84 85 86 86 86 86 86 86 85 85 84 84 84 85 85 86 87 87 88 89 90 91 90 89 88 86 85 84 83 82 81 81 81 80 79 77 77 78 78 75 71 71 70 66 67 69 65 61 59 58 56 55 53 51 50 48 46 41 39 39 39 37 35 32 29 28 28 28 28 26 23 22 21 21 19 16 15 13 11 11 10 7
79 81 82 83 83 84 85 85 86 86 85 86 86 87 87 87 87 87 86 85 84 84 86 86 87 88 90 91 92 93 93 92 90 88 86 85 84 83 83 82 82 81 80 80 80 78 76 74 72 70 71 71 67 64 62 60 59 58 57 55 53 51 48 44 43 42 40 38 36 32 31 31 30 29 29 27 25 24 23 22 21 19 18 15 13 13 11 9
79 80 82 82 83 84 85 85 85 84 84 84 84 85 86 87 88 89 89 89 87 86 85 84 85 87 87 89 92 94 95 95 95 93 91 89 87 86 85 85 85 84 82 81 80 80 79 78 75 74 74 73 69 67 66 64 63 62 61 59 56 55 52 47 46 44 41 39 37 34 35 33 30 30 30 28 27 25 25 25 23 22 20 17 15 14 13 11
75 77 78 80 82 83 84 84 83 82 82 82 82 83 83 85 86 87 89 90 91 89 88 86 86 86 86 88 90 92 95 96 96 97 95 93 92 90 89 87 86 86 85 83 82 81 82 82 80 78 78 76 72 71 70 69 67 66 65 62 61 60 55 51 49 46 43 41 39 37 35 33 32 33 33 31 28 27 28 29 26 24 21 18 16 16 14 14
69 71 73 76 78 80 80 80 80 80 80 79 79 80 81 81 82 84 85 87 89 90 91 91 90 88 88 88 88 89 92 95 97 98 98 97 96 94 93 90 89 88 87 86 85 84 84 85 84 83 82 80 77 76 75 73 71 71 68 66 66 63 58 54 50 49 47 43 41 39 36 34 35 36 36 33 31 31 33 32 29 26 23 20 18 17 17 17
64 66 70 72 74 74 74 74 75 75 75 75 75 76 76 78 79 80 81 83 84 86 89 92 92 92 92 91 89 88 89 91 95 98 98 99 99 99 97 94 92 91 88 88 88 86 86 87 86 84 84 83 82 81 79 77 76 75 71 69 69 65 60 56 53 52 49 43 42 43 40 39 39 39 38 36 34 36 37 35 31 28 25 23 21 20 20 19
60 63 65 67 68 68 68 68 68 68 68 69 69 69 70 72 74 76 77 78 79 82 85 88 91 94 94 94 93 92 90 89 91 95 97 99 101 102 102 99 96 94 91 90 90 88 88 88 86 85 86 87 86 84 82 80 79 77 74 72 72 67 63 59 56 54 49 43 45 47 45 43 42 42 41 39 39 41 40 38 34 30 28 27 24 23 22 20
56 59 61 62 63 63 63 63 62 61 62 62 63 63 64 66 68 70 72 74 75 78 81 84 87 91 93 95 95 95 94 92 92 93 95 98 100 103 104 102 100 98 96 93 92 91 90 90 89 89 89 89 88 87 85 84 81 79 76 76 74 70 66 62 58 55 50 46 49 51 49 45 43 46 45 41 43 43 41 40 36 34 32 29 27 26 24 22
54 58 59 60 60 60 60 60 59 57 57 57 57 58 59 60 63 65 67 68 70 74 78 80 83 86 89 92 95 96 97 96 95 95 95 96 99 102 104 104 104 103 101 97 96 95 93 92 93 92 90 89 90 89 88 86 83 81 80 79 77 73 70 66 62 59 55 51 51 53 51 45 45 51 48 43 47 45 43 43 39 37 35 32 30 28 26 24
54 57 59 59 58 57 57 56 55 53 52 52 52 53 54 55 58 60 62 64 67 70 74 77 80 83 86 89 92 95 97 98 98 98 98 98 98 100 102 105 105 106 104 102 100 98 96 96 95 93 91 90 90 90 90 89 87 84 83 83 80 77 74 71 68 65 61 55 53 53 52 46 46 53 50 47 51 49 45 45 42 40 38 34 32 29 27 26
54 57 57 56 55 54 52 51 50 49 48 48 49 49 49 50 52 55 58 60 63 66 70 73 77 80 84 87 90 93 96 98 99 100 101 102 101 100 100 103 105 107 107 106 105 103 100 99 98 95 93 92 92 92 92 91 89 87 87 86 83 80 78 76 73 71 66 60 55 53 53 49 47 52 53 52 54 52 48 47 44 42 40 37 34 32 30 29
54 54 54 52 50 49 47 45 45 45 45 44 45 45 46 47 48 50 53 56 59 62 65 69 73 77 80 84 88 92 95 97 99 101 102 103 104 103 102 102 103 106 108 109 108 106 104 103 100 97 94 94 95 94 93 92 91 91 90 88 85 82 80 79 77 74 70 63 58 55 55 54 50 53 58 58 57 54 51 49 47 44 42 39 37 35 33 32
52 52 50 48 46 43 41 40 40 41 41 41 41 41 41 43 44 46 48 51 53 56 60 63 68 73 76 80 84 88 93 96 99 101 103 104 105 105 105 104 103 104 107 109 109 109 108 106 102 98 97 96 96 96 95 95 94 94 92 89 87 85 83 82 79 76 71 66 61 58 57 57 54 57 62 61 58 57 53 51 49 46 45 42 40 38 36 34
50 49 46 44 42 39 37 36 36 37 37 37 36 36 36 37 39 41 43 46 48 51 54 57 62 67 72 76 80 85 90 93 97 100 102 104 105 106 107 107 106 105 105 107 109 110 111 110 105 102 101 99 98 99 99 98 97 96 94 91 89 87 86 84 80 76 73 68 64 61 59 57 55 59 63 61 59 59 55 52 51 49 46 44 42 40 38 37
48 45 42 41 39 36 35 33 33 33 33 32 32 31 31 32 34 36 38 41 44 47 50 53 56 61 66 71 76 81 86 90 94 98 101 103 105 107 108 109 109 108 107 107 108 110 112 113 110 108 106 103 102 103 101 99 99 98 96 93 91 90 88 86 82 78 75 71 66 64 61 57 55 57 62 62 61 61 59 55 53 51 47 45 43 41 39 38
46 40 38 38 36 34 32 31 30 29 29 28 28 27 28 29 30 32 34 37 39 42 45 49 52 55 60 66 71 76 82 87 91 95 98 101 105 108 109 110 111 111 111 109 108 110 113 115 114 112 110 107 106 105 103 102 102 100 98 95 93 91 88 87 84 80 77 73 69 67 63 60 58 57 61 64 64 63 61 57 54 51 48 46 45 42 40 39
43 37 35 35 33 31 30 28 27 27 26 26 25 24 25 26 27 29 31 34 36 39 41 45 48 51 55 61 66 71 77 82 87 92 95 98 102 106 109 112 113 113 114 113 111 110 112 115 116 115 113 110 110 109 107 105 103 102 99 96 94 92 89 88 85 81 78 74 71 69 66 63 60 60 63 67 66 63 61 58 55 52 49 48 46 44 42 40
41 35 33 33 31 29 28 26 25 25 25 25 25 23 23 24 26 28 30 32 34 36 39 41 45 48 52 57 61 66 72 77 83 88 92 95 99 102 106 111 114 115 116 116 114 112 111 114 116 116 114 114 115 113 109 106 104 102 99 97 96 93 91 89 86 82 80 76 73 71 68 65 62 62 65 68 67 63 59 58 56 53 50 49 47 45 43 42
39 35 32 32 31 28 26 24 24 24 25 25 25 23 23 24 26 28 30 32 33 34 36 39 42 45 48 53 58 62 68 73 78 83 88 91 95 99 103 108 112 115 117 117 116 114 113 113 116 117 116 118 119 115 111 108 106 104 102 100 98 95 92 89 85 81 79 76 74 72 69 66 63 64 67 70 71 65 59 58 58 56 53 51 48 46 45 43
37 35 32 30 29 27 24 22 22 23 24 26 26 25 24 25 27 28 29 31 32 33 34 36 39 42 46 50 55 59 64 68 72 77 82 86 91 95 99 104 109 113 116 118 117 117 116 115 116 118 118 121 122 119 115 113 111 109 107 103 100 97 93 89 85 82 79 77 75 71 69 68 66 66 70 72 73 68 62 60 61 60 57 54 51 48 46 45
35 34 33 30 28 25 23 21 21 22 24 26 27 26 25 26 28 29 29 30 31 32 33 34 36 39 43 48 53 56 60 63 67 72 76 80 84 90 95 100 105 109 112 115 117 119 119 118 117 118 120 123 124 122 120 118 117 114 109 105 102 98 94 90 88 86 83 81 79 74 71 70 67 69 72 73 74 73 67 63 63 62 60 57 54 52 50 47
35 33 32 31 29 25 22 20 19 21 24 26 27 27 26 27 29 29 29 29 31 31 32 33 34 36 40 45 50 53 55 58 61 66 70 74 78 83 89 95 100 104 108 112 115 118 120 119 119 119 120 123 125 124 123 122 120 115 109 106 104 99 95 92 90 88 85 82 81 77 75 72 69 72 75 74 76 77 70 64 64 63 61 58 56 54 51 48
35 33 32 30 28 25 22 19 18 19 22 25 27 28 28 28 28 28 27 29 32 33 33 33 33 34 36 41 45 49 51 53 56 60 64 68 72 76 83 89 94 100 104 108 112 115 119 120 121 121 121 123 126 125 123 122 120 115 110 107 104 100 96 94 92 89 85 82 81 79 76 73 70 74 77 75 75 76 71 65 63 62 60 58 55 52 50 48
34 33 32 30 27 25 23 20 18 19 22 25 28 29 28 27 26 26 27 29 32 34 35 34 33 33 34 37 40 44 46 49 52 55 58 63 67 70 76 82 89 95 100 105 108 111 115 119 121 121 121 123 124 124 123 122 120 118 114 110 107 102 99 96 93 89 85 83 82 79 76 72 71 76 79 75 75 76 73 67 64 62 61 58 56 53 50 49
34 33 32 30 28 25 23 22 20 20 21 25 27 27 25 24 23 24 26 28 31 34 35 35 34 32 32 33 36 39 41 44 47 51 54 57 61 66 70 76 83 89 95 101 105 108 111 115 119 121 122 123 123 123 123 122 121 120 117 114 110 106 102 99 95 91 87 84 83 80 77 74 74 78 79 77 77 78 75 69 66 64 61 59 57 55 52 50
34 33 31 30 27 24 23 22 21 22 23 24 25 25 23 22 22 22 24 27 30 33 34 34 33 31 29 30 31 34 37 39 42 46 50 53 56 61 65 70 77 84 90 97 102 105 108 111 115 119 122 123 123 123 123 123 123 122 120 118 114 109 105 101 97 93 90 86 84 81 78 76 77 79 79 78 78 77 75 72 68 66 63 60 59 57 54 53
34 33 30 28 26 23 22 22 22 23 24 25 25 24 22 22 22 22 23 25 28 32 34 33 32 29 27 26 27 29 32 35 38 42 47 50 52 56 60 65 71 78 85 92 98 102 105 107 111 116 120 123 124 123 122 123 124 123 121 119 116 112 108 104 100 97 93 89 86 83 80 78 79 80 80 79 78 77 76 74 69 67 65 63 61 58 56 55
35 33 30 27 24 22 21 21 22 24 26 26 26 24 23 23 24 24 25 25 27 31 33 33 31 29 26 23 22 24 27 31 34 38 43 47 50 52 56 61 66 73 79 86 92 98 102 105 108 112 117 122 125 124 122 122 123 123 121 119 117 115 111 107 104 99 95 91 88 85 82 80 79 81 82 81 80 78 78 75 71 68 66 64 61 59 57 56
Wind_Direction
255 255 254 254 254 253 252 252 252 252 251 251 252 251 251 252 254 254 254 252 248 244 244 245 246 245 240 233 230 231 232 229 226 224 225 226 226 228 228 228 229 229 230 230 231 232 233 234 235 235 235 236 236 237 238 238 240 241 244 246 248 251 253 256 259 261 265 269 273 278 283 287 292 296 299 302 304 307 311 313 317 321 324 334 347 349 349 348
256 255 254 254 253 253 252 252 251 251 251 251 251 251 251 250 251 252 252 252 250 246 243 242 243 245 243 238 233 231 232 234 231 225 225 227 227 228 229 229 229 230 231 231 232 232 233 234 235 236 236 237 237 238 239 239 241 243 245 247 249 251 253 256 259 262 265 268 272 277 282 285 290 294 296 299 302 306 309 311 316 320 325 342 351 351 350 348
256 255 255 254 253 252 252 251 251 251 251 251 251 251 251 250 250 250 251 250 249 248 245 241 240 242 243 242 237 234 232 234 235 230 227 228 228 229 229 229 230 230 231 232 232 233 234 235 236 237 238 239 239 240 241 242 243 244 246 248 250 252 254 257 259 262 265 268 272 276 280 284 288 291 293 296 300 304 306 309 314 318 331 350 355 353 350 348
256 256 255 255 254 253 252 251 251 251 251 251 251 250 250 250 249 249 250 250 248 248 246 243 239 238 240 241 240 237 234 234 236 233 231 230 229 230 230 230 230 231 231 231 232 233 234 236 237 238 240 241 242 242 243 244 245 246 248 249 251 253 255 257 259 262 265 268 272 276 279 282 285 287 290 294 298 301 304 309 311 316 342 356 357 353 350 348
257 257 256 256 255 254 253 252 251 251 251 251 250 250 250 250 249 249 248 249 248 247 246 245 242 238 237 238 240 239 237 236 235 234 234 234 230 230 231 231 231 231 232 232 232 233 234 236 237 238 240 241 242 243 244 245 246 247 248 250 252 254 256 258 259 261 264 268 272 274 276 279 281 284 288 293 296 299 302 305 304 317 353 2 358 354 349 350
258 258 257 257 256 256 255 254 253 252 252 251 251 250 250 249 249 248 248 248 248 247 245 244 243 241 238 236 236 238 238 238 236 234 234 235 234 231 231 232 233 233 232 232 232 233 234 236 237 239 240 242 243 244 245 245 246 247 249 250 252 254 255 257 259 260 263 267 269 270 272 276 279 283 287 291 293 296 299 296 290 321 2 6 360 355 350 353
259 259 258 258 257 257 256 256 255 254 253 253 252 251 250 249 249 248 247 247 247 247 245 244 243 242 240 237 234 235 236 238 237 235 234 234 234 233 231 233 235 235 233 232 232 232 234 236 237 238 240 241 242 244 245 246 247 247 249 250 252 253 255 256 257 259 262 264 266 268 271 274 277 281 285 287 290 292 291 280 275 329 13 8 2 358 353 358
259 259 258 258 257 257 257 257 256 255 255 254 253 252 251 250 249 248 248 247 247 246 246 244 243 242 241 239 236 233 234 236 236 236 236 233 232 232 231 232 236 237 235 233 232 231 232 234 236 237 239 241 242 243 244 245 246 247 249 250 251 253 254 255 256 258 260 262 264 266 268 271 274 278 281 282 285 284 274 259 267 341 22 12 6 2 358 3
261 260 259 258 258 257 256 256 256 256 255 254 253 252 252 250 250 249 248 248 247 246 246 245 243 242 241 240 238 235 233 235 234 235 237 234 232 231 230 230 233 238 239 235 232 231 230 232 235 237 239 241 242 242 243 244 245 246 247 248 250 251 253 254 255 257 259 260 262 264 266 270 273 275 275 275 274 264 246 242 266 348 25 17 12 6 4 7
262 261 260 259 258 257 257 256 255 255 254 254 253 252 251 250 249 249 248 248 247 246 245 245 244 242 241 240 239 237 235 234 232 233 236 235 233 231 231 229 229 235 239 238 234 231 230 230 232 235 237 239 241 241 241 242 243 244 245 247 248 250 252 253 255 256 257 259 260 262 265 268 268 267 265 262 250 232 225 232 263 327 15 25 17 10 11 11
261 261 261 260 259 258 257 256 256 255 255 254 253 252 251 250 249 248 248 247 247 246 245 244 244 242 241 240 239 238 236 236 234 232 234 235 233 231 232 231 228 229 235 239 237 232 229 228 227 228 230 233 237 240 240 239 240 242 243 245 246 248 250 251 252 254 255 257 258 260 262 261 259 255 248 235 218 209 211 217 261 309 1 31 22 14 16 16
261 261 260 259 259 258 257 257 256 255 255 254 253 252 252 250 249 248 248 247 246 246 245 244 243 242 241 240 239 238 236 237 236 233 233 234 233 231 231 232 230 227 229 235 239 235 229 226 226 225 225 227 232 238 238 236 236 238 239 241 243 245 246 247 249 251 253 254 255 255 254 252 248 239 224 209 198 195 197 199 240 295 344 31 27 17 20 20
261 260 260 259 258 257 257 256 255 255 254 253 253 252 251 250 249 249 248 247 246 245 245 244 243 242 241 240 240 238 236 236 237 235 233 233 233 231 229 232 232 229 227 229 235 237 232 227 227 226 224 223 224 231 233 232 234 236 236 237 238 240 242 243 244 247 249 250 250 247 244 241 235 220 205 196 191 188 188 186 205 275 332 24 29 20 21 24
261 261 260 260 259 258 257 256 256 254 254 253 252 252 251 250 249 248 248 247 246 245 244 244 242 241 240 239 240 239 237 236 236 236 234 233 233 231 229 230 232 231 228 227 230 235 235 231 229 229 228 224 222 227 229 227 231 235 234 233 234 235 238 239 240 242 244 245 242 236 230 225 218 208 196 190 190 187 185 181 189 246 317 8 25 24 21 26
261 261 261 260 260 259 258 257 256 255 254 253 253 252 251 250 249 248 247 247 246 245 244 243 242 241 240 239 239 239 237 235 235 235 235 234 234 232 230 229 232 231 229 228 227 230 234 233 230 230 230 227 225 227 228 224 228 235 233 231 232 232 233 236 236 235 237 235 229 223 217 211 206 200 193 189 191 187 185 182 187 221 289 341 12 24 21 25
261 261 260 260 260 259 258 257 256 256 255 254 253 252 251 250 249 248 247 247 246 245 244 244 242 241 240 239 238 238 237 236 235 235 235 235 234 233 231 229 230 231 229 228 227 227 230 232 231 230 230 229 228 229 228 224 227 234 235 233 232 229 228 231 231 229 229 225 218 211 205 204 200 194 191 191 191 189 187 184 189 207 242 305 348 18 18 23
261 260 260 260 259 259 259 258 257 256 255 254 253 252 251 250 249 248 247 247 246 245 245 244 243 241 239 239 238 237 237 236 235 235 234 234 235 234 231 230 230 231 229 228 228 228 228 230 231 231 230 230 230 230 229 224 223 228 234 235 232 227 223 227 227 224 223 218 209 203 199 199 196 192 192 193 193 192 190 188 192 205 220 265 314 3 14 17
261 260 260 260 260 259 259 259 258 258 257 255 254 253 252 251 250 248 248 247 246 246 245 244 243 242 240 239 238 237 237 237 235 234 234 233 234 234 233 230 230 231 230 228 228 229 228 228 230 231 231 231 230 229 228 226 222 224 230 234 232 227 223 224 223 219 219 211 203 203 200 197 196 193 194 194 196 196 194 192 195 206 214 237 284 338 8 14
262 261 261 261 260 260 259 259 258 258 257 256 255 254 253 252 250 249 247 247 247 246 245 245 244 243 241 240 238 237 236 236 236 235 234 233 233 233 233 232 230 230 230 228 228 229 228 227 228 229 231 230 228 227 228 228 226 226 230 235 235 230 226 225 221 217 217 208 201 206 204 199 198 196 195 197 199 201 198 193 199 210 215 225 258 310 356 9
263 263 262 261 261 260 259 258 258 257 257 256 255 254 254 253 251 250 248 247 246 246 245 245 245 243 242 241 239 238 236 236 236 235 234 233 232 232 233 232 230 229 230 229 228 228 227 227 228 229 229 229 227 228 229 230 230 229 231 236 235 230 227 225 221 218 216 207 203 208 207 202 200 199 199 200 202 204 199 194 205 216 220 227 244 277 331 359
264 263 262 262 261 260 260 259 258 257 257 256 256 255 254 253 253 251 249 247 246 246 245 244 244 244 243 241 240 238 237 236 236 235 234 234 232 231 231 232 231 230 229 229 228 227 226 227 230 230 229 228 228 229 229 230 231 229 231 235 235 230 225 222 220 219 216 209 203 207 210 205 202 202 203 206 207 204 199 199 210 220 226 233 244 260 291 339
265 264 263 262 261 260 260 260 259 258 258 257 256 255 255 254 253 252 251 248 247 246 245 244 244 244 243 242 240 239 238 236 236 235 234 234 233 231 230 231 231 230 229 228 228 228 227 228 231 230 228 228 228 228 227 228 230 229 229 233 235 232 226 221 220 218 216 213 206 207 213 210 204 204 207 212 211 204 202 205 213 220 227 240 254 265 271 303
267 266 264 263 262 261 260 260 259 259 258 257 257 256 255 254 253 252 251 250 248 246 245 244 244 243 243 242 241 239 238 237 236 235 234 234 233 232 231 230 229 229 230 228 228 228 227 228 230 228 227 228 228 227 226 227 228 228 228 229 231 231 228 223 218 216 217 217 212 208 213 214 210 209 212 215 213 207 206 212 218 223 229 243 258 266 270 281
268 267 266 265 264 263 262 261 260 260 259 258 258 257 256 256 254 253 252 250 249 247 245 244 243 243 243 242 241 240 239 237 236 235 234 234 233 232 231 230 229 228 229 228 228 227 226 229 229 226 227 228 227 226 226 227 227 228 228 228 228 229 227 222 218 218 218 217 213 210 211 214 215 215 217 218 216 213 213 217 222 224 228 237 247 259 268 275
269 268 268 267 266 265 264 263 262 261 260 260 259 258 257 257 256 255 253 251 250 248 246 244 243 242 242 242 241 240 239 238 237 235 235 234 233 232 231 230 229 228 227 227 227 227 226 229 228 225 227 228 227 226 226 226 227 226 227 227 227 228 226 221 220 222 219 216 215 211 210 215 217 219 221 220 218 217 218 221 224 224 226 231 238 250 261 268
269 269 269 268 268 267 266 265 264 263 262 261 260 259 258 257 256 255 254 253 251 249 247 245 243 242 241 241 241 240 239 238 237 236 235 234 233 232 231 231 229 228 227 226 227 226 226 228 228 226 227 228 227 227 227 227 227 227 227 227 227 228 226 222 222 223 220 219 217 213 213 216 218 221 224 222 221 221 223 225 226 226 229 232 237 246 256 263
270 270 270 270 270 269 268 267 267 266 265 264 262 261 259 258 256 255 254 253 252 250 248 246 244 243 241 240 240 239 239 238 237 237 235 234 233 232 231 230 230 228 227 227 226 226 226 228 227 226 227 227 226 227 227 227 227 227 227 227 227 228 226 223 222 223 221 222 220 216 216 217 218 224 226 224 223 224 226 228 227 229 231 233 239 246 252 259
274 273 273 273 272 271 270 270 270 269 268 266 264 263 261 259 257 255 254 252 251 250 249 247 245 244 242 240 238 238 238 238 237 237 236 235 234 232 231 230 230 229 227 227 226 225 225 226 226 227 227 226 225 226 227 226 226 226 225 225 227 227 226 223 221 221 221 222 223 221 219 219 221 226 228 227 226 227 230 232 230 232 235 237 241 247 252 256
278 277 276 274 274 273 273 273 273 271 270 268 266 264 262 260 258 256 254 252 251 249 248 247 246 244 243 241 239 237 237 238 237 236 236 235 234 233 232 230 230 229 227 227 226 225 225 226 225 226 227 226 225 225 226 225 225 226 224 224 226 226 224 222 220 221 221 221 225 226 223 223 225 227 230 229 229 231 234 235 234 235 237 238 241 245 249 251
281 280 279 277 277 277 277 277 276 274 272 270 268 266 264 262 259 257 255 252 250 249 247 246 245 244 243 242 240 238 236 236 237 237 235 235 234 234 233 231 229 229 228 227 227 225 226 226 225 226 227 227 226 225 225 225 225 225 224 224 226 225 224 222 220 221 220 219 225 228 226 226 228 229 230 230 231 233 236 237 237 237 239 240 241 243 246 251
285 284 283 283 283 282 281 280 279 277 275 273 270 268 265 262 260 258 255 253 250 249 247 245 244 243 242 242 241 239 237 235 235 236 236 235 234 234 233 232 230 229 228 227 227 226 225 227 226 225 227 228 228 226 225 225 225 225 225 225 227 226 225 223 221 221 218 217 225 228 226 227 229 231 230 229 231 234 237 239 238 239 240 241 242 243 246 249
289 288 288 288 288 287 286 284 281 279 277 274 271 268 265 263 260 258 256 253 251 248 247 245 243 242 241 240 240 240 238 236 234 235 235 234 233 233 233 232 231 229 228 227 227 226 225 226 226 225 225 226 228 228 227 226 225 225 225 226 227 227 226 225 223 221 219 219 224 226 226 226 230 233 230 230 233 234 237 239 239 240 241 241 241 241 244 244
293 293 293 293 292 291 290 287 284 281 278 275 271 268 265 263 260 258 255 253 250 248 246 244 243 241 240 239 239 238 238 237 235 234 234 234 233 232 232 232 231 230 228 227 226 226 225 225 225 225 224 225 227 228 228 228 226 225 225 226 226 226 226 226 225 223 221 222 224 225 225 224 230 234 230 230 234 233 235 238 238 239 240 240 240 240 241 241
297 297 297 296 296 294 292 289 287 284 280 276 273 269 266 263 260 258 255 253 250 247 246 244 242 241 239 238 238 237 237 236 235 234 233 233 233 232 231 231 231 230 229 227 226 226 225 225 225 224 224 225 226 227 227 228 227 226 226 226 225 225 225 226 225 224 222 223 224 223 223 223 229 235 231 230 234 232 233 237 237 238 239 239 238 237 238 237
300 300 299 299 298 295 293 291 289 286 283 280 276 273 269 264 261 258 255 253 250 247 245 243 242 240 239 237 236 236 236 235 235 234 233 232 232 232 231 231 230 230 229 227 226 226 225 225 225 224 223 224 225 226 226 227 227 226 226 226 225 224 224 225 224 224 222 223 223 221 221 222 228 235 233 231 234 233 232 235 236 237 238 238 237 235 233 234
303 302 302 301 299 297 295 293 290 287 284 281 278 275 272 269 264 260 257 254 251 248 246 243 242 240 238 237 235 235 235 234 233 233 232 231 231 231 231 230 230 229 229 228 227 226 225 225 225 224 223 223 225 225 226 226 227 226 226 226 226 225 225 224 224 224 223 223 223 221 220 222 225 232 233 230 232 233 231 233 234 235 237 236 235 234 232 232
307 306 305 303 300 298 297 294 290 287 284 282 279 275 273 270 267 264 260 257 253 250 247 244 242 240 239 237 235 234 234 233 232 232 231 230 230 230 230 230 230 229 229 228 227 226 225 225 224 224 223 223 224 225 225 225 226 226 226 225 225 225 225 225 224 224 223 223 223 221 220 222 224 230 233 231 232 234 232 233 234 234 235 235 233 233 231 231
310 309 308 305 303 302 299 295 291 288 285 282 280 277 274 270 267 264 261 259 255 252 248 245 242 241 239 237 235 234 233 232 232 231 230 230 229 229 228 228 229 229 228 228 227 226 225 225 223 223 223 223 223 224 225 225 225 225 225 225 225 224 224 225 224 224 224 223 223 221 220 222 224 231 235 232 231 234 233 232 233 233 233 233 233 233 232 231
313 312 310 308 308 306 302 297 292 289 286 284 283 280 277 273 269 265 262 259 256 254 251 247 244 241 240 238 236 234 233 232 231 231 230 229 228 228 227 227 227 228 228 227 226 226 225 224 223 222 223 222 222 224 224 224 225 225 224 224 224 223 223 224 223 223 223 222 222 220 218 220 222 229 237 234 229 232 232 231 232 232 232 232 233 233 233 233
315 314 313 311 311 307 302 297 293 291 289 287 286 284 281 277 273 268 264 260 257 254 252 249 246 243 241 239 237 235 234 233 231 231 229 228 227 227 227 227 226 226 227 226 226 225 225 224 223 222 222 222 223 223 223 223 224 224 224 223 224 223 222 223 222 222 222 221 221 220 218 219 220 225 236 237 230 228 230 230 231 232 232 232 232 233 233 234
317 316 316 314 312 308 302 298 296 295 294 291 289 288 286 283 280 275 270 265 260 257 254 251 248 245 242 240 238 236 235 233 232 231 230 228 227 226 226 226 226 225 226 225 225 224 224 224 223 222 221 222 223 223 223 223 223 224 223 223 223 222 222 222 221 221 222 221 220 219 217 218 220 221 230 237 234 228 227 229 231 231 231 232 232 232 232 232
319 318 320 318 314 310 304 301 302 302 301 298 295 293 291 289 286 282 277 271 266 262 258 254 251 248 245 242 240 238 236 234 232 232 230 228 227 226 225 225 225 225 225 225 224 224 223 223 223 222 221 221 223 223 223 223 223 224 223 223 223 222 221 221 220 220 220 220 219 218 217 217 219 221 226 234 236 230 224 225 228 229 230 231 232 231 231 230
321 321 323 321 317 311 306 305 308 310 309 306 302 299 298 295 290 285 281 276 272 268 263 259 255 252 249 246 242 240 238 235 233 232 231 229 227 226 224 224 224 224 224 224 223 223 223 222 223 222 220 221 222 222 222 223 223 223 223 222 222 221 221 220 220 220 220 220 220 218 216 215 216 220 224 230 235 232 224 222 225 226 226 227 229 230 231 230
323 324 325 323 318 312 307 309 313 314 314 310 307 305 302 298 293 288 284 280 277 273 269 264 260 257 254 250 247 243 240 237 235 234 232 230 228 227 225 224 224 223 223 223 223 222 222 222 222 221 220 220 221 221 221 222 222 222 222 221 221 220 219 218 219 219 218 219 220 217 215 214 214 219 223 227 232 232 226 222 223 225 225 225 225 226 228 229
325 326 326 323 319 313 308 311 317 319 316 312 310 307 304 300 297 293 290 287 284 280 275 270 265 262 258 256 252 248 244 240 238 236 234 231 229 227 226 224 224 223 223 222 222 222 222 221 221 221 220 220 221 221 220 221 222 221 220 220 221 220 219 218 217 217 216 216 217 215 214 213 213 218 222 225 230 232 228 223 223 225 225 225 224 225 226 227
326 328 327 324 320 314 309 313 320 321 317 313 311 309 306 304 300 298 299 298 295 290 283 277 271 266 262 259 257 254 249 244 240 238 236 233 230 228 227 225 224 223 223 222 221 221 221 221 220 221 220 220 221 220 220 221 222 222 220 220 220 219 218 217 217 217 216 216 216 215 213 211 211 217 222 223 228 232 229 225 225 225 226 226 226 227 227 227
328 330 328 325 320 314 310 312 318 319 319 319 316 312 308 305 303 304 308 309 307 301 295 288 280 273 267 263 260 257 253 249 244 240 237 234 231 228 227 225 224 223 222 222 221 220 220 220 220 220 220 220 221 220 220 220 221 222 221 220 221 220 219 218 217 216 216 216 217 215 213 211 211 217 221 222 227 232 230 227 226 226 227 226 226 227 227 227
329 330 329 325 320 314 311 312 314 318 324 325 320 312 307 305 307 312 316 318 316 312 306 299 291 282 274 268 264 260 255 250 246 242 238 235 232 229 227 225 224 223 222 222 222 220 220 219 219 219 220 221 221 220 220 220 220 221 221 220 220 219 219 218 217 216 215 215 216 215 213 211 211 217 221 220 224 229 230 227 225 225 225 225 225 225 225 225
329 331 329 325 321 316 313 313 315 318 322 324 319 312 307 308 314 320 324 324 322 318 313 307 299 290 281 273 268 263 257 250 246 242 239 235 232 230 227 224 223 222 221 221 221 221 220 219 219 219 220 221 221 220 219 219 219 220 220 220 219 218 218 217 217 216 215 215 216 215 213 210 211 217 220 220 222 227 228 226 224 223 223 223 223 222 222 223
329 330 329 325 320 316 312 313 316 317 320 323 321 317 313 315 320 324 327 328 326 323 319 314 307 298 287 277 271 265 259 251 244 240 238 235 232 229 227 224 223 222 220 220 220 220 220 219 218 218 219 220 221 221 219 218 219 219 219 219 219 218 217 217 216 215 214 214 215 214 212 210 212 217 220 221 222 225 228 227 224 223 222 221 220 219 220 221
328 328 328 324 319 314 312 313 316 319 321 324 325 323 322 324 326 326 327 329 331 329 325 321 316 308 296 284 274 267 259 251 244 239 237 235 232 229 226 223 222 221 220 219 219 219 219 218 218 217 218 219 221 221 219 218 218 218 219 219 219 218 217 216 216 215 213 213 213 213 211 211 213 216 219 221 222 224 227 228 226 224 223 222 220 218 218 219
327 327 327 324 318 313 311 313 316 319 322 324 326 329 332 334 334 333 331 333 335 335 332 328 325 319 310 294 279 267 258 250 244 238 235 234 232 229 226 223 221 220 219 219 218 218 218 218 217 217 217 218 220 220 220 219 218 218 218 218 218 218 217 216 215 214 213 212 213 212 211 210 213 216 219 220 221 223 226 227 226 224 224 223 221 219 218 218
Height
10936 10937 10938 10939 10940 10941 10942 10943 10944 10946 10947 10948 10949 10950 10951 10953 10953 10954 10955 10956 10957 10959 10960 10961 10962 10962 10964 10965 10966 10967 10967 10968 10969 10972 10974 10974 10975 10977 10979 10981 10984 10985 10987 10988 10989 10991 10992 10994 10995 10996 10998 10999 11001 11002 11004 11006 11008 11010 11011 11013 11014 11015 11016 11016 11017 11018 11019 11019 11020 11020 11020 11020 11020 11020 11019 11018 11018 11017 11016 11015 11014 11013 11011 11009 11007 11005 11003 11001
10931 10932 10933 10934 10935 10936 10937 10938 10939 10941 10942 10943 10944 10946 10947 10948 10949 10950 10951 10952 10953 10955 10956 10957 10958 10959 10960 10962 10964 10965 10965 10966 10966 10969 10971 10971 10973 10974 10976 10978 10980 10982 10983 10984 10986 10988 10989 10990 10991 10993 10994 10996 10998 10999 11001 11004 11006 11008 11009 11011 11012 11013 11013 11014 11015 11016 11017 11017 11018 11019 11018 11019 11019 11019 11018 11017 11017 11016 11015 11014 11013 11012 11010 11009 11007 11005 11003 11002
10925 10926 10927 10928 10929 10930 10931 10932 10934 10936 10937 10938 10939 10941 10942 10944 10945 10946 10947 10948 10949 10950 10952 10953 10954 10956 10957 10958 10960 10962 10963 10963 10964 10966 10968 10968 10970 10971 10972 10974 10976 10977 10978 10981 10983 10985 10987 10987 10989 10990 10992 10993 10995 10997 10999 11002 11004 11006 11007 11008 11009 11010 11011 11012 11013 11014 11015 11015 11016 11017 11017 11017 11017 11017 11016 11016 11016 11015 11014 11013 11012 11011 11010 11008 11006 11005 11004 11002
10920 10920 10921 10922 10923 10924 10925 10927 10928 10930 10931 10932 10934 10935 10937 10938 10940 10942 10943 10944 10945 10946 10947 10948 10950 10952 10953 10954 10956 10958 10960 10961 10962 10963 10964 10965 10967 10967 10969 10970 10971 10973 10974 10977 10980 10982 10984 10984 10986 10987 10989 10991 10992 10994 10997 10999 11001 11003 11004 11005 11007 11008 11009 11009 11011 11012 11012 11013 11014 11015 11015 11015 11015 11015 11015 11015 11014 11013 11013 11012 11011 11010 11009 11007 11006 11005 11004 11002
10914 10914 10915 10916 10917 10918 10919 10921 10922 10924 10925 10926 10928 10930 10932 10933 10935 10937 10938 10939 10940 10942 10943 10944 10945 10947 10949 10950 10952 10954 10956 10958 10959 10960 10961 10962 10963 10964 10966 10967 10967 10968 10971 10973 10976 10978 10980 10981 10982 10984 10986 10987 10989 10992 10994 10996 10998 11000 11001 11002 11004 11004 11006 11007 11008 11009 11010 11011 11012 11013 11013 11013 11013 11013 11013 11013 11013 11012 11012 11011 11010 11009 11008 11007 11006 11005 11004 11003
10908 10909 10910 10911 10912 10912 10913 10915 10916 10918 10919 10920 10922 10924 10926 10928 10929 10931 10933 10934 10935 10937 10938 10939 10941 10942 10944 10946 10948 10949 10952 10954 10955 10957 10958 10958 10959 10961 10962 10963 10964 10965 10967 10969 10972 10975 10976 10978 10979 10981 10982 10984 10986 10988 10990 10992 10995 10997 10998 10999 11000 11001 11003 11004 11005 11006 11008 11009 11010 11010 11011 11011 11012 11012 11012 11012 11011 11011 11010 11010 11009 11009 11008 11007 11006 11005 11004 11002
10902 10903 10904 10905 10906 10907 10908 10909 10910 10912 10913 10914 10916 10918 10920 10922 10923 10925 10927 10929 10930 10931 10933 10935 10936 10937 10939 10941 10943 10945 10947 10949 10951 10953 10954 10955 10956 10957 10959 10960 10960 10961 10963 10965 10968 10971 10973 10974 10976 10978 10979 10980 10982 10985 10987 10989 10992 10993 10994 10996 10997 10998 10999 11001 11002 11004 11005 11007 11008 11008 11009 11010 11010 11010 11010 11010 11010 11009 11009 11009 11009 11008 11007 11007 11006 11005 11004 11002
10897 10897 10898 10899 10900 10901 10902 10902 10904 10905 10906 10908 10910 10912 10914 10916 10918 10920 10921 10923 10924 10926 10927 10929 10931 10932 10934 10936 10938 10941 10943 10944 10946 10948 10949 10950 10952 10953 10956 10957 10957 10957 10959 10961 10964 10967 10969 10970 10972 10973 10975 10977 10979 10981 10984 10986 10988 10990 10991 10992 10993 10994 10996 10997 10999 11001 11003 11004 11005 11006 11007 11008 11008 11008 11009 11009 11009 11008 11008 11008 11008 11007 11006 11006 11005 11005 11004 11002
10891 10891 10891 10892 10894 10895 10895 10896 10897 10898 10899 10901 10903 10905 10907 10909 10911 10913 10915 10916 10918 10920 10921 10923 10925 10927 10928 10931 10933 10936 10938 10938 10941 10943 10943 10945 10948 10950 10952 10953 10954 10954 10955 10958 10960 10963 10964 10967 10969 10971 10972 10974 10975 10977 10980 10982 10984 10985 10986 10987 10989 10991 10992 10994 10996 10998 11000 11001 11002 11003 11004 11005 11006 11007 11007 11007 11007 11007 11007 11007 11007 11007 11006 11005 11005 11004 11003 11002
10884 10884 10884 10885 10886 10887 10888 10889 10890 10891 10892 10894 10895 10898 10899 10901 10904 10906 10908 10910 10911 10913 10915 10917 10919 10921 10923 10925 10927 10930 10932 10933 10935 10937 10938 10940 10943 10946 10948 10950 10951 10951 10952 10954 10956 10958 10962 10965 10967 10968 10969 10970 10970 10973 10976 10978 10979 10981 10982 10983 10985 10987 10989 10991 10993 10995 10997 10998 10999 11001 11002 11003 11004 11005 11005 11005 11006 11006 11006 11006 11006 11006 11005 11004 11004 11004 11003 11001
10877 10876 10877 10877 10879 10880 10881 10882 10883 10884 10885 10886 10888 10890 10891 10894 10896 10899 10901 10902 10904 10906 10908 10910 10912 10914 10917 10919 10921 10924 10926 10928 10930 10932 10933 10935 10938 10941 10944 10945 10948 10949 10949 10950 10952 10955 10959 10962 10963 10964 10965 10966 10966 10968 10972 10975 10975 10976 10978 10980 10982 10984 10986 10988 10990 10992 10993 10995 10997 10998 11000 11001 11002 11003 11003 11004 11004 11005 11005 11005 11006 11006 11005 11004 11003 11003 11002 11001
10869 10869 10868 10869 10870 10871 10872 10874 10875 10876 10877 10878 10880 10882 10883 10886 10888 10891 10893 10894 10896 10899 10900 10902 10905 10908 10910 10913 10915 10917 10920 10923 10924 10926 10928 10929 10932 10936 10939 10941 10943 10945 10946 10947 10948 10952 10956 10958 10959 10960 10961 10962 10964 10964 10968 10970 10971 10972 10974 10976 10978 10980 10982 10985 10987 10988 10990 10993 10995 10996 10998 10998 11000 11001 11001 11002 11003 11003 11004 11005 11005 11005 11004 11003 11003 11002 11002 11001
10861 10861 10860 10860 10861 10862 10863 10864 10866 10867 10868 10870 10871 10873 10875 10877 10880 10882 10884 10886 10888 10890 10892 10894 10897 10900 10903 10906 10907 10910 10914 10917 10918 10920 10922 10924 10926 10930 10934 10936 10937 10940 10942 10944 10945 10948 10952 10954 10956 10957 10958 10960 10962 10961 10963 10966 10966 10968 10970 10972 10975 10977 10979 10981 10983 10985 10987 10990 10992 10994 10996 10997 10998 10998 10999 11000 11001 11002 11003 11004 11004 11004 11004 11002 11002 11002 11001 11001
10853 10852 10851 10851 10853 10854 10854 10855 10856 10858 10859 10861 10862 10864 10866 10868 10871 10873 10875 10877 10879 10882 10884 10886 10888 10892 10895 10898 10900 10902 10906 10910 10912 10914 10916 10919 10921 10924 10928 10931 10932 10935 10938 10940 10942 10944 10947 10951 10953 10954 10955 10958 10959 10957 10960 10963 10962 10963 10966 10968 10971 10973 10975 10978 10981 10983 10984 10987 10990 10991 10993 10995 10996 10996 10997 10998 10999 11000 11002 11002 11003 11003 11003 11002 11001 11001 11001 11000
10844 10844 10842 10842 10843 10844 10845 10846 10847 10848 10850 10852 10853 10854 10856 10859 10862 10864 10866 10868 10870 10873 10875 10877 10880 10883 10887 10890 10893 10895 10898 10903 10905 10907 10910 10913 10915 10917 10922 10925 10927 10929 10933 10936 10939 10941 10943 10946 10949 10950 10952 10954 10955 10956 10959 10961 10960 10960 10961 10964 10967 10970 10972 10974 10978 10980 10981 10984 10987 10988 10990 10992 10994 10995 10995 10997 10998 10999 11000 11001 11002 11002 11002 11002 11001 11001 11000 11000
10834 10834 10833 10832 10833 10834 10834 10836 10837 10838 10840 10841 10843 10844 10846 10848 10852 10855 10857 10859 10861 10863 10866 10868 10871 10874 10878 10881 10884 10886 10890 10895 10898 10900 10904 10906 10908 10911 10915 10919 10921 10924 10928 10931 10934 10937 10939 10942 10944 10947 10949 10950 10952 10954 10956 10959 10959 10957 10957 10960 10963 10967 10970 10971 10974 10977 10979 10982 10984 10985 10988 10990 10991 10993 10994 10995 10996 10997 10999 11000 11000 11001 11002 11001 11001 11000 11000 11000
10824 10824 10823 10822 10823 10823 10824 10825 10826 10827 10829 10830 10832 10834 10835 10838 10841 10845 10848 10850 10852 10854 10856 10859 10861 10865 10869 10873 10875 10879 10882 10886 10890 10893 10896 10899 10901 10904 10907 10911 10915 10918 10922 10926 10930 10933 10935 10938 10940 10942 10944 10947 10949 10951 10953 10955 10955 10955 10954 10954 10958 10964 10968 10969 10971 10975 10977 10979 10981 10983 10985 10987 10988 10990 10991 10993 10994 10996 10997 10998 10999 11000 11001 11001 11001 11000 10999 10999
10813 10813 10812 10812 10812 10813 10813 10814 10814 10815 10817 10819 10821 10823 10825 10827 10831 10836 10839 10840 10843 10845 10847 10850 10852 10856 10860 10864 10866 10870 10874 10877 10881 10884 10888 10891 10894 10896 10900 10904 10908 10912 10916 10921 10925 10927 10930 10934 10935 10938 10941 10944 10945 10946 10947 10948 10951 10952 10949 10949 10954 10962 10965 10966 10970 10973 10974 10977 10980 10980 10982 10984 10986 10988 10989 10991 10993 10994 10996 10997 10998 10999 10999 11000 11000 11000 10999 10999
10801 10802 10802 10802 10801 10802 10802 10802 10803 10803 10804 10806 10808 10810 10813 10816 10819 10824 10828 10831 10833 10836 10838 10841 10843 10846 10850 10854 10857 10861 10865 10868 10871 10875 10879 10882 10886 10889 10892 10896 10901 10905 10909 10914 10919 10921 10925 10928 10931 10935 10936 10935 10937 10939 10940 10944 10948 10949 10947 10948 10954 10960 10963 10965 10968 10970 10972 10976 10978 10978 10980 10982 10984 10986 10988 10990 10991 10993 10994 10995 10996 10997 10998 10999 10999 10999 10999 10998
10790 10791 10791 10791 10790 10790 10789 10790 10790 10790 10791 10792 10795 10797 10800 10803 10807 10811 10817 10821 10822 10825 10828 10831 10833 10836 10840 10844 10847 10852 10855 10858 10861 10865 10869 10873 10877 10881 10883 10888 10893 10898 10902 10907 10912 10914 10917 10923 10927 10927 10926 10927 10932 10935 10937 10942 10944 10945 10947 10948 10952 10957 10960 10962 10965 10968 10970 10973 10975 10976 10978 10980 10983 10984 10986 10988 10989 10991 10993 10995 10995 10996 10997 10997 10998 10998 10998 10998
10779 10779 10780 10779 10778 10777 10777 10777 10777 10778 10778 10779 10781 10785 10787 10790 10793 10797 10803 10809 10812 10814 10817 10821 10823 10824 10829 10833 10837 10841 10845 10849 10852 10856 10859 10863 10867 10871 10875 10880 10885 10890 10894 10898 10903 10906 10912 10919 10919 10916 10918 10923 10928 10931 10934 10937 10938 10942 10945 10946 10949 10953 10956 10959 10962 10965 10966 10969 10971 10974 10975 10978 10980 10982 10984 10985 10987 10989 10992 10993 10994 10994 10995 10996 10997 10997 10997 10998
10767 10767 10768 10768 10767 10766 10765 10766 10765 10765 10766 10767 10769 10772 10774 10777 10780 10782 10787 10795 10800 10803 10805 10809 10812 10813 10817 10822 10826 10830 10834 10838 10842 10845 10849 10852 10856 10861 10867 10872 10876 10882 10884 10889 10896 10899 10907 10911 10906 10907 10915 10919 10922 10925 10929 10931 10933 10938 10942 10943 10946 10948 10951 10955 10958 10960 10963 10965 10968 10971 10973 10975 10978 10980 10982 10982 10985 10988 10990 10991 10992 10993 10994 10995 10996 10996 10996 10997
10755 10755 10754 10755 10755 10754 10753 10754 10753 10753 10753 10756 10757 10758 10760 10763 10765 10769 10772 10778 10785 10790 10793 10797 10799 10802 10805 10809 10814 10819 10822 10827 10831 10834 10837 10840 10846 10852 10858 10862 10867 10871 10875 10883 10888 10891 10899 10898 10893 10902 10911 10912 10915 10919 10923 10926 10929 10933 10937 10939 10942 10943 10946 10950 10953 10957 10960 10962 10965 10968 10970 10972 10975 10978 10979 10980 10983 10986 10988 10989 10990 10991 10992 10993 10995 10995 10996 10996
10742 10741 10741 10741 10742 10741 10741 10741 10741 10740 10741 10744 10745 10745 10747 10749 10751 10755 10758 10763 10769 10775 10780 10783 10786 10789 10792 10797 10802 10806 10810 10815 10818 10822 10825 10830 10836 10842 10847 10850 10856 10862 10868 10874 10877 10881 10888 10884 10886 10900 10903 10902 10907 10912 10917 10921 10924 10928 10931 10934 10936 10938 10941 10945 10950 10954 10955 10957 10960 10964 10967 10970 10973 10974 10976 10978 10981 10984 10986 10987 10988 10990 10991 10992 10993 10994 10995 10995
10729 10729 10727 10726 10728 10728 10727 10727 10727 10727 10729 10730 10732 10733 10735 10736 10738 10740 10744 10749 10754 10759 10763 10768 10773 10776 10779 10784 10789 10793 10797 10801 10805 10809 10813 10819 10825 10830 10835 10840 10846 10853 10858 10863 10866 10872 10877 10875 10882 10894 10893 10892 10901 10908 10912 10915 10918 10922 10925 10928 10931 10934 10937 10942 10947 10948 10950 10954 10957 10961 10966 10967 10969 10970 10972 10976 10979 10982 10983 10984 10986 10988 10989 10990 10991 10992 10994 10994
10717 10716 10714 10713 10714 10714 10713 10713 10713 10714 10716 10717 10718 10720 10721 10723 10724 10726 10729 10733 10739 10743 10746 10753 10759 10762 10767 10771 10774 10779 10783 10787 10792 10797 10802 10807 10813 10818 10824 10830 10835 10841 10847 10851 10857 10864 10868 10868 10876 10884 10883 10887 10896 10902 10905 10909 10913 10916 10919 10922 10926 10929 10933 10938 10942 10944 10947 10951 10954 10960 10963 10964 10966 10968 10970 10973 10976 10978 10980 10982 10984 10985 10986 10988 10989 10991 10992 10993
10705 10704 10703 10701 10700 10699 10699 10698 10699 10701 10702 10703 10705 10705 10706 10708 10709 10711 10715 10717 10722 10727 10731 10739 10743 10746 10753 10757 10758 10764 10768 10773 10779 10784 10790 10796 10801 10807 10812 10817 10822 10829 10836 10842 10849 10857 10859 10860 10868 10874 10875 10880 10889 10894 10897 10901 10905 10908 10912 10917 10921 10924 10928 10933 10938 10941 10945 10948 10951 10957 10959 10961 10965 10965 10967 10970 10973 10975 10976 10978 10980 10982 10984 10986 10988 10989 10990 10992
10694 10693 10691 10689 10687 10685 10684 10685 10686 10687 10688 10688 10690 10691 10691 10692 10694 10696 10698 10701 10705 10711 10717 10723 10725 10730 10737 10739 10743 10749 10753 10760 10766 10770 10777 10783 10788 10794 10799 10806 10812 10818 10826 10833 10840 10846 10847 10850 10858 10863 10865 10872 10880 10884 10886 10892 10897 10899 10905 10911 10914 10917 10922 10927 10933 10938 10941 10944 10949 10952 10956 10960 10962 10962 10964 10967 10969 10972 10972 10974 10977 10979 10982 10984 10986 10987 10989 10990
10684 10682 10679 10675 10673 10673 10672 10672 10672 10672 10672 10673 10674 10675 10676 10676 10678 10679 10682 10685 10689 10695 10700 10704 10709 10715 10719 10722 10730 10737 10741 10747 10751 10756 10764 10770 10775 10781 10787 10795 10801 10805 10815 10823 10827 10833 10837 10840 10847 10853 10856 10863 10870 10873 10877 10884 10888 10891 10898 10905 10905 10910 10917 10922 10929 10934 10937 10943 10946 10949 10953 10957 10958 10958 10961 10964 10966 10967 10967 10970 10974 10977 10980 10982 10984 10985 10987 10988
10673 10670 10667 10663 10662 10661 10661 10660 10658 10657 10657 10658 10658 10659 10660 10660 10662 10663 10665 10669 10674 10679 10682 10687 10692 10698 10702 10707 10715 10722 10728 10735 10737 10742 10751 10756 10762 10768 10773 10782 10788 10794 10805 10811 10815 10824 10828 10830 10838 10847 10850 10854 10859 10863 10869 10876 10879 10883 10893 10898 10898 10905 10912 10917 10924 10928 10933 10942 10944 10945 10949 10951 10952 10954 10957 10960 10962 10962 10963 10966 10971 10974 10977 10979 10981 10983 10984 10986
10663 10660 10656 10653 10651 10650 10649 10647 10646 10644 10643 10643 10643 10644 10644 10645 10646 10648 10650 10653 10659 10662 10664 10670 10675 10680 10686 10692 10698 10705 10713 10721 10724 10728 10735 10742 10749 10754 10758 10768 10777 10783 10792 10799 10805 10813 10817 10820 10830 10838 10840 10843 10849 10855 10862 10867 10871 10877 10887 10891 10892 10900 10906 10911 10918 10923 10933 10942 10940 10939 10942 10946 10948 10949 10952 10955 10956 10957 10959 10963 10967 10971 10974 10976 10979 10981 10982 10984
10654 10650 10647 10644 10641 10639 10637 10635 10634 10633 10631 10629 10629 10629 10629 10630 10631 10632 10634 10639 10644 10646 10648 10654 10658 10663 10670 10676 10682 10688 10695 10704 10711 10714 10719 10726 10733 10738 10744 10754 10763 10770 10779 10787 10792 10798 10805 10811 10817 10824 10828 10833 10840 10846 10852 10857 10864 10873 10879 10882 10886 10894 10900 10907 10913 10921 10931 10935 10932 10933 10937 10943 10944 10942 10946 10952 10952 10954 10956 10959 10964 10967 10970 10973 10976 10978 10980 10982
10646 10642 10638 10635 10632 10629 10625 10622 10621 10621 10619 10617 10616 10615 10615 10616 10616 10618 10620 10624 10628 10630 10633 10637 10642 10647 10654 10660 10666 10672 10678 10687 10695 10700 10705 10710 10717 10724 10730 10738 10748 10755 10764 10774 10779 10785 10794 10798 10802 10810 10818 10824 10830 10836 10843 10850 10857 10865 10870 10874 10880 10887 10894 10901 10907 10916 10924 10926 10926 10929 10933 10940 10939 10934 10942 10948 10946 10950 10953 10954 10960 10963 10966 10970 10972 10975 10977 10980
10639 10634 10630 10626 10623 10619 10615 10611 10609 10608 10606 10604 10604 10603 10603 10604 10604 10605 10606 10610 10612 10614 10617 10622 10626 10631 10637 10644 10650 10655 10662 10670 10677 10684 10690 10695 10702 10709 10716 10723 10732 10740 10749 10760 10766 10773 10780 10783 10789 10801 10810 10816 10821 10827 10833 10838 10846 10855 10860 10864 10870 10878 10885 10892 10898 10906 10913 10916 10919 10924 10930 10937 10933 10928 10938 10942 10939 10945 10949 10951 10956 10958 10962 10966 10968 10972 10974 10976
10631 10626 10622 10618 10613 10609 10605 10602 10599 10596 10595 10593 10592 10591 10592 10592 10593 10593 10594 10596 10598 10600 10603 10607 10611 10615 10620 10627 10633 10638 10645 10653 10659 10667 10674 10680 10687 10694 10702 10709 10716 10725 10734 10743 10750 10759 10767 10772 10779 10790 10801 10807 10810 10815 10821 10827 10837 10844 10848 10853 10861 10870 10876 10881 10888 10894 10902 10908 10913 10921 10928 10932 10928 10924 10930 10934 10933 10940 10945 10947 10952 10955 10958 10962 10965 10969 10970 10972
10624 10618 10614 10609 10605 10600 10597 10594 10590 10587 10585 10584 10583 10582 10581 10581 10582 10582 10583 10584 10586 10588 10590 10594 10597 10600 10605 10611 10616 10621 10628 10635 10642 10648 10656 10664 10671 10679 10688 10694 10702 10710 10718 10727 10737 10748 10755 10758 10767 10781 10792 10795 10797 10803 10811 10818 10826 10831 10837 10845 10854 10861 10866 10872 10880 10886 10895 10903 10908 10918 10924 10925 10923 10916 10919 10926 10929 10934 10941 10943 10948 10951 10954 10958 10961 10964 10966 10968
10615 10610 10605 10600 10596 10593 10590 10586 10582 10579 10577 10576 10575 10574 10573 10573 10573 10573 10573 10574 10575 10576 10579 10582 10584 10586 10591 10596 10601 10606 10611 10617 10624 10630 10638 10647 10655 10664 10673 10680 10687 10695 10703 10713 10723 10733 10740 10745 10759 10774 10779 10783 10788 10794 10799 10805 10812 10817 10826 10836 10842 10850 10857 10864 10872 10880 10890 10899 10903 10913 10919 10919 10917 10909 10908 10921 10926 10929 10936 10940 10943 10947 10949 10953 10956 10959 10962 10964
10607 10602 10597 10592 10589 10586 10583 10580 10576 10573 10570 10568 10567 10567 10566 10566 10565 10564 10564 10564 10565 10565 10567 10570 10572 10574 10578 10582 10586 10591 10594 10600 10608 10613 10621 10630 10638 10648 10656 10664 10672 10680 10689 10698 10707 10719 10727 10734 10749 10759 10763 10772 10778 10779 10784 10792 10798 10805 10815 10824 10832 10843 10850 10856 10867 10876 10885 10893 10897 10906 10912 10913 10913 10904 10901 10915 10923 10923 10930 10935 10937 10942 10945 10948 10952 10954 10958 10960
10600 10595 10589 10584 10581 10579 10576 10573 10570 10567 10565 10563 10561 10560 10559 10558 10557 10556 10556 10556 10556 10556 10557 10559 10561 10563 10565 10568 10572 10576 10579 10585 10591 10596 10604 10613 10621 10630 10639 10647 10656 10664 10673 10682 10692 10705 10712 10719 10733 10742 10748 10758 10761 10762 10772 10782 10788 10794 10805 10814 10823 10833 10841 10848 10860 10868 10874 10883 10889 10898 10905 10906 10907 10901 10894 10905 10915 10917 10923 10929 10932 10936 10940 10944 10947 10950 10953 10956
10594 10589 10583 10578 10575 10572 10570 10567 10564 10562 10559 10557 10556 10555 10553 10552 10550 10549 10549 10548 10548 10548 10548 10549 10551 10553 10554 10556 10559 10563 10566 10570 10576 10580 10587 10597 10604 10613 10622 10631 10640 10649 10657 10666 10676 10688 10695 10704 10717 10726 10734 10744 10748 10752 10762 10769 10775 10782 10793 10805 10814 10824 10833 10841 10851 10858 10866 10875 10881 10890 10898 10898 10901 10900 10889 10890 10903 10911 10917 10923 10927 10932 10936 10939 10942 10945 10949 10952
10587 10583 10578 10574 10570 10567 10564 10562 10559 10556 10554 10552 10551 10550 10548 10546 10544 10543 10542 10541 10540 10540 10540 10540 10541 10542 10544 10544 10546 10550 10552 10556 10561 10565 10572 10580 10587 10596 10606 10614 10623 10633 10640 10648 10659 10671 10680 10689 10700 10710 10723 10733 10735 10738 10746 10755 10763 10772 10784 10798 10805 10814 10825 10832 10843 10852 10860 10868 10874 10883 10890 10891 10894 10896 10885 10878 10889 10904 10913 10919 10923 10927 10931 10933 10937 10940 10943 10947
10580 10577 10573 10568 10565 10562 10559 10556 10554 10551 10549 10547 10546 10545 10543 10541 10539 10537 10535 10534 10533 10533 10532 10532 10532 10533 10534 10534 10535 10537 10539 10542 10547 10550 10557 10565 10571 10581 10590 10596 10606 10616 10623 10632 10644 10656 10666 10676 10685 10698 10714 10720 10717 10724 10738 10748 10756 10765 10778 10789 10795 10804 10815 10823 10834 10844 10851 10859 10866 10873 10882 10886 10888 10889 10882 10874 10878 10892 10907 10915 10917 10922 10926 10928 10931 10935 10938 10942
10573 10570 10567 10563 10560 10558 10555 10552 10549 10546 10544 10542 10541 10539 10538 10536 10534 10532 10530 10528 10526 10525 10525 10524 10524 10524 10524 10524 10524 10526 10527 10529 10533 10536 10543 10550 10557 10566 10574 10580 10588 10599 10606 10616 10630 10641 10652 10663 10671 10683 10699 10702 10701 10715 10730 10737 10745 10755 10765 10774 10782 10793 10806 10817 10828 10838 10846 10853 10858 10865 10875 10880 10882 10882 10877 10871 10869 10880 10898 10908 10911 10914 10918 10922 10926 10930 10933 10937
10567 10564 10562 10559 10556 10553 10550 10547 10545 10542 10540 10538 10536 10535 10533 10532 10529 10527 10525 10522 10520 10519 10517 10517 10516 10515 10515 10514 10513 10515 10515 10518 10522 10524 10529 10536 10543 10551 10559 10566 10573 10582 10591 10602 10616 10627 10637 10647 10655 10667 10681 10684 10687 10703 10715 10721 10730 10738 10747 10759 10772 10784 10797 10809 10821 10830 10838 10844 10849 10859 10867 10871 10874 10872 10868 10866 10864 10870 10887 10899 10904 10907 10911 10915 10920 10924 10928 10932
10562 10559 10556 10554 10552 10549 10546 10543 10541 10538 10536 10534 10532 10530 10528 10527 10524 10521 10519 10516 10514 10512 10510 10510 10509 10507 10507 10505 10503 10503 10504 10507 10511 10513 10517 10524 10531 10538 10545 10552 10559 10568 10578 10588 10601 10611 10620 10631 10642 10652 10663 10669 10675 10688 10699 10705 10710 10719 10736 10753 10764 10776 10789 10801 10810 10817 10825 10832 10838 10848 10856 10862 10867 10863 10859 10861 10858 10860 10874 10888 10896 10900 10904 10910 10914 10918 10922 10926
10557 10554 10552 10548 10546 10544 10542 10539 10537 10535 10533 10530 10528 10526 10523 10521 10519 10515 10513 10509 10507 10504 10502 10501 10501 10499 10498 10496 10494 10493 10494 10497 10500 10502 10506 10511 10518 10525 10531 10539 10546 10556 10565 10574 10585 10595 10605 10618 10629 10637 10647 10654 10660 10672 10684 10691 10698 10713 10733 10745 10753 10767 10781 10791 10800 10807 10817 10825 10830 10838 10845 10853 10859 10853 10849 10854 10851 10851 10866 10881 10890 10896 10900 10906 10911 10914 10919 10922
10552 10549 10547 10544 10542 10540 10537 10536 10534 10532 10529 10527 10524 10521 10518 10516 10513 10510 10507 10503 10499 10496 10494 10492 10491 10491 10490 10487 10485 10484 10484 10486 10489 10491 10495 10499 10506 10513 10519 10526 10534 10543 10552 10560 10570 10581 10591 10603 10614 10623 10632 10638 10645 10659 10673 10683 10694 10710 10726 10736 10746 10761 10773 10781 10790 10800 10810 10817 10822 10830 10837 10847 10852 10844 10841 10849 10849 10849 10861 10875 10885 10892 10898 10904 10908 10912 10916 10919
10548 10545 10542 10540 10538 10535 10533 10531 10530 10528 10526 10523 10520 10517 10514 10512 10508 10505 10501 10498 10494 10490 10486 10484 10482 10481 10480 10478 10476 10475 10474 10476 10478 10480 10484 10488 10494 10500 10507 10514 10522 10530 10540 10547 10556 10568 10579 10590 10601 10612 10620 10625 10634 10649 10663 10675 10687 10700 10713 10724 10736 10750 10761 10771 10782 10792 10802 10809 10814 10823 10832 10842 10846 10835 10834 10845 10846 10844 10853 10867 10878 10885 10891 10898 10903 10907 10911 10914
10544 10541 10538 10535 10533 10530 10528 10526 10525 10523 10521 10519 10517 10513 10510 10507 10504 10501 10497 10493 10489 10485 10481 10477 10473 10471 10470 10469 10467 10466 10465 10466 10468 10470 10473 10477 10483 10488 10495 10502 10509 10516 10526 10534 10543 10555 10566 10576 10589 10600 10609 10615 10623 10637 10652 10665 10676 10686 10699 10711 10723 10737 10749 10760 10771 10783 10793 10801 10807 10815 10825 10835 10835 10826 10829 10839 10840 10838 10845 10858 10870 10877 10884 10891 10896 10901 10905 10908
10539 10537 10534 10531 10529 10526 10524 10522 10520 10518 10517 10515 10512 10509 10506 10503 10500 10497 10494 10490 10486 10481 10476 10471 10467 10463 10462 10460 10459 10457 10456 10457 10459 10461 10463 10467 10472 10477 10483 10491 10497 10504 10513 10521 10530 10542 10553 10564 10578 10589 10597 10603 10610 10623 10638 10652 10662 10672 10684 10697 10710 10725 10738 10749 10761 10772 10782 10790 10798 10807 10818 10825 10823 10820 10825 10833 10835 10835 10840 10849 10861 10870 10876 10883 10888 10893 10898 10901
10535 10533 10530 10527 10525 10523 10520 10518 10516 10514 10512 10510 10508 10505 10501 10498 10495 10492 10489 10486 10482 10477 10471 10466 10461 10457 10454 10453 10451 10450 10449 10449 10450 10452 10454 10457 10462 10467 10473 10480 10486 10493 10501 10509 10518 10529 10540 10553 10566 10575 10584 10590 10596 10608 10623 10636 10648 10660 10672 10685 10700 10714 10727 10739 10749 10759 10771 10782 10790 10799 10808 10814 10815 10817 10821 10826 10830 10833 10835 10842 10854 10864 10869 10876 10882 10887 10891 10895
10530 10528 10525 10523 10521 10518 10516 10514 10512 10510 10508 10506 10503 10500 10497 10494 10490 10486 10484 10481 10478 10473 10467 10462 10457 10452 10449 10447 10445 10443 10442 10442 10443 10445 10447 10449 10453 10458 10463 10470 10476 10483 10491 10499 10508 10518 10529 10540 10551 10562 10572 10578 10582 10594 10609 10623 10636 10649 10663 10677 10691 10703 10716 10727 10737 10750 10763 10773 10781 10790 10799 10806 10811 10811 10811 10817 10824 10827 10828 10834 10846 10856 10862 10868 10876 10882 10886 10889